Lid_Strength_Index
2 1 1 2 2 4 5 7 9 4 3 8 8 11 10 10 9 8 9 8 8 8 8 8 8 9 7 6 7 9 7 10 12 11 7 7 8 10 10 16 17 14 16 13
2 2 2 2 3 4 5 9 8 4 3 9 10 10 10 10 10 9 9 10 9 7 9 10 8 7 6 6 7 8 8 10 12 12 9 8 10 9 9 9 10 14 17 14
2 3 2 2 3 4 5 8 9 7 6 6 10 11 11 11 9 9 9 9 9 9 9 8 9 8 6 6 7 6 6 9 10 13 11 10 12 11 9 10 14 13 13 11
2 3 3 2 3 4 5 8 9 8 10 9 9 10 11 12 12 9 9 10 10 10 11 10 10 8 7 6 7 7 7 11 9 9 10 9 10 11 11 12 11 13 11 11
2 3 2 2 3 4 6 9 10 8 10 10 11 11 12 12 12 11 12 12 10 10 11 10 11 9 8 9 7 8 7 11 10 10 10 9 10 9 9 10 10 11 10 11
2 3 2 2 3 4 8 7 6 8 10 11 11 10 11 12 11 11 10 10 11 12 11 9 9 8 7 7 8 8 9 9 11 12 10 9 11 10 10 9 9 9 11 9
2 3 2 2 3 4 6 6 7 8 10 11 10 10 11 12 12 12 11 11 12 10 8 8 8 8 8 7 7 7 9 9 10 12 10 14 10 8 9 10 10 10 10 8
2 2 3 2 3 4 5 5 6 6 10 9 9 10 11 11 11 12 12 11 10 8 9 10 11 10 10 9 8 8 7 9 11 13 12 11 10 10 10 11 12 9 9 8
2 2 3 3 3 4 4 4 3 5 9 9 8 10 10 12 13 13 11 9 8 9 10 11 14 14 12 12 10 8 8 8 10 11 15 15 11 9 9 10 13 8 8 8
2 2 3 3 3 4 3 4 2 5 8 8 9 10 11 10 11 13 12 11 11 9 11 13 13 13 10 13 12 11 10 9 12 11 13 10 9 8 8 13 12 8 7 7
1 2 2 3 2 3 2 3 2 5 8 8 8 8 10 10 11 13 11 12 11 11 13 12 12 12 11 11 10 10 10 11 12 10 13 15 8 8 11 9 7 7 7 7
2 1 2 2 1 2 2 4 2 3 6 7 6 6 6 7 8 10 10 11 11 10 11 11 11 12 10 10 12 8 11 8 10 9 10 6 6 7 6 7 8 7 7 6
2 1 1 2 1 1 2 3 3 4 7 8 7 8 6 5 6 6 11 10 10 10 9 11 10 12 10 12 11 10 8 7 8 8 7 6 6 6 7 6 7 6 6 7
2 2 1 1 1 1 1 3 2 5 7 11 10 7 8 6 6 6 7 8 8 8 8 10 11 12 9 11 10 10 8 8 8 7 6 6 6 6 6 6 6 7 7 6
1 1 1 1 1 1 1 2 2 3 8 11 10 8 8 6 7 7 7 8 9 10 11 11 12 10 10 10 10 11 9 9 10 9 6 6 6 5 5 6 6 6 7 7
1 1 1 1 1 1 2 6 3 2 4 9 12 8 9 8 8 8 8 8 9 9 10 11 10 9 10 11 12 9 8 7 7 7 5 5 5 4 5 6 6 6 6 6
1 2 1 2 2 2 5 7 5 3 4 9 11 11 9 8 8 9 9 8 9 9 10 11 11 10 9 11 12 9 8 7 7 6 6 7 5 6 5 5 6 6 6 7
1 2 2 2 2 4 6 5 4 3 6 8 12 12 11 8 11 12 9 11 10 10 11 10 11 10 10 12 10 9 8 7 7 7 6 6 5 5 5 5 6 7 8 8
2 2 3 4 5 8 8 4 4 3 7 12 12 12 13 9 10 10 10 10 13 10 12 12 10 11 12 10 9 8 7 7 7 6 6 6 6 6 5 6 6 7 8 8
3 4 5 10 8 5 4 7 9 9 9 9 12 10 12 10 10 11 11 10 12 14 12 10 12 12 9 8 7 7 6 6 5 6 7 6 7 6 6 6 6 6 7 8
5 10 11 7 4 7 9 12 12 12 13 11 11 10 12 9 12 12 10 12 11 15 12 12 12 12 9 7 7 6 6 6 6 5 5 5 5 5 6 6 6 6 7 8
8 8 6 7 9 12 13 14 13 14 15 11 12 11 10 10 8 10 11 13 12 16 10 13 14 10 7 7 6 6 5 5 6 5 6 5 4 4 5 6 6 7 7 8
6 10 12 12 12 15 15 17 15 15 12 11 11 12 10 10 9 11 11 14 14 10 14 15 11 8 7 6 6 6 5 6 6 6 5 4 4 4 5 6 6 7 8 8
12 14 17 13 15 14 13 13 12 11 11 11 11 11 12 11 12 11 14 12 12 15 17 14 9 7 6 6 5 6 7 7 7 6 6 4 4 5 5 6 6 8 9 8
14 13 15 14 11 11 11 10 11 11 10 11 11 11 11 12 13 12 13 15 16 15 14 10 7 7 6 6 6 7 8 8 8 7 6 4 4 5 6 6 7 8 8 8
12 12 12 11 13 12 11 11 11 10 10 10 10 12 13 14 14 15 15 15 16 12 10 7 6 6 6 6 7 8 9 9 7 6 5 5 6 6 7 8 8 9 8 9
14 13 10 11 11 12 11 10 11 9 11 12 12 15 15 12 14 15 12 14 11 8 7 6 6 6 7 7 7 9 9 9 7 6 6 6 6 6 9 9 9 9 9 10